Location: Azul
(36.7830°S, 59.8500°W)
Time: 20:36:42
(UTC-03:00)

RS-44 - Pass Details

Date: 20 September 2024
Orbit: 1174 x 1511 km, 82.5° (Epoch: 11 October)

Event Time Altitude Azimuth Distance (km) Brightness Sun altitude
Rises 00:56:14 0° 166° (SSE) 4,442 ? -54.1°
Reaches altitude 10° 01:02:53 10° 128° (SE) 3,555 ? -54.1°
Enters shadow 01:04:07 10° 120° (ESE) 3,533 ? -54.0°
